FO-99
1 43937U 19003F   22188.03998484  .00008998  00000-0  29994-3 0  9995
2 43937  97.1292 220.6311 0022467  85.5017 274.8791 15.31063390192977
MYSat 1
1 44045U 18092F   22188.57328472  .00033659  00000-0  47475-3 0  9992
2 44045  51.6322 332.1624 0008079 183.5387 176.5548 15.56241551191000
AstroCast 0.2
1 44083U 19018F   22188.15668474  .00008382  00000-0  31702-3 0  9997
2 44083  97.3205 246.6454 0011726  64.3745 295.8704 15.27141146181494
AISTechSat 3
1 44103U 19018AB  22188.40110378  .00005047  00000-0  18807-3 0  9999
2 44103  97.3071 247.2554 0013598  69.8224 290.4477 15.27808732181698
AISat 1
1 44104U 19018AC  22188.50132353  .00005273  00000-0  14734-3 0  9994
2 44104  97.3954 271.7156 0053300  62.7339 297.9319 15.35699247182677
Prox-1
1 44339U 19036A   22188.76472582  .00002308  00000-0  47571-3 0  9994
2 44339  24.0007  65.2464 0010507  80.8109 279.3571 14.55143249161408
Oculus-ASR
1 44348U 19036K   22188.77388905  .00052260 -56096-5  47257-3 0  9995
2 44348  28.5028  51.7236 0232368 180.0079 180.0541 15.38909550167674
Armadillo
1 44352U 19036P   22188.52227694  .00136689 -13454-5  49887-3 0  9990
2 44352  28.5222 328.9174 0108629 313.3713  45.7891 15.78008514168426
NO-104
1 44354U 19036R   22188.28288329  .00036492 -59895-5  30584-3 0  9991
2 44354  28.5261  40.6412 0222228 194.5439 164.8684 15.41969606167745
Move-IIb
1 44398U 19038N   22188.58541453  .00007178  00000-0  34508-3 0  9991
2 44398  97.6292 158.1171 0023480  60.4965 299.8607 15.18878686166097
SONATE
1 44400U 19038Q   22188.60562196  .00002828  00000-0  15506-3 0  9999
2 44400  97.6409 157.2003 0025254  65.1024 295.2825 15.14762459165989
BeeSat 9
1 44412U 19038AC  22188.63573261  .00005243  00000-0  26663-3 0  9990
2 44412  97.6361 158.0712 0022149  66.9130 293.4435 15.17080965165752
JAISAT-1
1 44419U 19038F   22188.41733516  .00004780  00000-0  24032-3 0  9997
2 44419  97.6364 158.7040 0021108  65.1318 295.2107 15.17552379166082
LightSail-2
1 44420U 19036AC  22188.53199818  .00041104  00000-0  50678-2 0  9996
2 44420  24.0002 359.9496 0009425 207.4889 152.5110 14.81473288160184
Taurus 1
1 44530U 19059C   22188.40398338  .00001177  00000-0  33466-3 0  9990
2 44530  98.5487 287.1089 0014698  64.5619 295.7098 14.47135014148736
Duchifat 3
1 44854U 19089C   22188.82083208  .00002037  00000-0  16191-3 0  9997
2 44854  36.9686 339.5915 0008614  17.2782 127.9656 15.01180848140991
OPS-SAT
1 44878U 19092F   22188.46870790  .00005091  00000-0  23730-3 0  9997
2 44878  97.4807  12.2490 0010758 269.3941  90.6061 15.20287750141231
TO-108
1 44881U 19093C   22188.83743936  .00000324  00000-0  47702-4 0  9994
2 44881  97.8925 267.7547 0016231 117.1940 243.0918 14.81746831137798
FloripaSat 1
1 44885U 19093G   22188.44912871  .00001037  00000-0  13334-3 0  9996
2 44885  97.8967 268.7046 0015774 124.6518 235.6188 14.83196675137814
RS-44
1 44909U 19096E   22188.51793899  .00000018  00000-0  35559-4 0  9993
2 44909  82.5199 216.9456 0216164 272.8516  84.7865 12.79713835118077
BY70-2
1 45857U 20042B   22188.91291346  .00003815  00000-0  51056-3 0  9990
2 45857  97.9549 265.5596 0011675  58.5710 301.6652 14.80004653108483
UPMSat 2
1 46276U 20061E   22188.14522264  .00002328  00000-0  11678-3 0  9992
2 46276  97.3907 258.5202 0003207  99.4310 260.7287 15.18303081101862
AmicalSat
1 46287U 20061R   22188.38920857  .00002904  00000-0  16887-3 0  9997
2 46287  97.4455 257.6529 0002584 168.4501 191.6790 15.12838949101480
SALSAT
1 46495U 20068K   22188.44772476  .00001793  00000-0  13200-3 0  9995
2 46495  97.7306 129.7551 0015764 205.3257 154.7198 15.04578367 97196
BY70-3
1 46839U 20079N   22188.75914639  .00014468  00000-0  33353-3 0  9996
2 46839  97.1962 260.5949 0004111 243.5950 269.3185 15.42675440 93370
CAPE 3
1 47309U 21002A   22188.54561588  .00005673  00000-0  23457-3 0  9996
2 47309  60.6840 288.9589 0024148 351.6889   8.3796 15.25036828 81515
AO-109
1 47311U 21002C   22188.59120014  .00004514  00000-0  18663-3 0  9995
2 47311  60.6858 286.4253 0020029 353.8289   6.2550 15.25539226 81548
MiTEE 1
1 47314U 21002F   22188.57794914  .00010204  00000-0  34950-3 0  9992
2 47314  60.6828 279.3435 0017489 343.9505  16.1029 15.30654508 81670
ExoCube 2
1 47319U 21002L   22188.66121077  .00004514  00000-0  18891-3 0  9994
2 47319  60.6846 287.2683 0021491 354.6972   5.3885 15.25102538 81498
UVSQ-SAT
1 47438U 21006AB  22188.61245561  .00003386  00000-0  18017-3 0  9996
2 47438  97.4359 247.2096 0011503 196.6906 163.3950 15.15869189 80336
YUSAT 1
1 47439U 21006AC  22188.44471966  .00004787  00000-0  24998-3 0  9999
2 47439  97.4366 247.1554 0011296 196.9920 163.0936 15.16331207 80316
SOMP 2b
1 47445U 21006AJ  22188.15281443  .00002664  00000-0  14383-3 0  9992
2 47445  97.4330 246.4090 0010994 202.6496 157.4253 15.15535445 80259
IDEASSat
1 47458U 21006AX  22188.40098532  .00003035  00000-0  16413-3 0  9998
2 47458  97.4421 247.1669 0010232 199.2231 160.8617 15.15377193 80286
Maya-2
1 47929U 98067SF  22187.50330417  .06258577  12351-4  62901-3 0  9991
2 47929  51.6123 198.3492 0003382 301.7247  58.3448 16.37241531 74823
CubeSX-Sirius-HSE
1 47951U 21022V   22188.79480499  .00002802  00000-0  18725-3 0  9992
2 47951  97.5287  87.8887 0022723  77.4902 282.8903 15.07581766 71069
CubeSX-HSE
1 47952U 21022W   22188.78131218  .00003005  00000-0  20021-3 0  9992
2 47952  97.5292  87.8958 0022655  77.4931 282.8824 15.07643101 71065
KSU-Cubesat
1 47954U 21022Y   22188.41068792  .00003000  00000-0  19869-3 0  9993
2 47954  97.5290  87.6407 0022312  77.7439 282.6286 15.07876628 70733
GRBAlpha
1 47959U 21022AD  22188.44729473  .00002968  00000-0  19768-3 0  9991
2 47959  97.5292  87.6072 0022643  78.8479 281.5267 15.07664678 69837
Orbicraft-Zorkiy
1 47960U 21022AE  22188.88462920  .00002222  00000-0  14844-3 0  9995
2 47960  97.5309  88.1766 0022582  75.9187 284.4543 15.07813579 70590
STECCO
1 47962U 21022AG  22188.51024181  .00003559  00000-0  22320-3 0  9992
2 47962  97.5272  88.5306 0017679  71.6698 103.0808 15.09835118 69892
DO-111
1 47963U 21022AH  22188.44191609  .00009624  00000-0  53212-3 0  9998
2 47963  97.5306  89.5735 0019155  66.1953 294.1284 15.13933084 69977
MO-110
1 47964U 21022AJ  22188.25259582  .00003769  00000-0  23341-3 0  9997
2 47964  97.5289  88.5434 0020396  69.9757 290.3666 15.10216217 69875
FEES
1 48082U 21022AL  22188.44185958  .00004822  00000-0  29325-3 0  9994
2 48082  97.5296  88.6608 0016670  67.0235 293.2751 15.10799790 69609
RamSat
1 48850U 98067SL  22188.68918836  .00057438  00000-0  41276-3 0  9995
2 48850  51.6351 214.0589 0003400  38.4872 321.6369 15.73047962 60512
TUBIN
1 48900U 21059X   22188.73345248  .00002077  00000-0  11781-3 0  9992
2 48900  97.5566 317.8738 0010882  41.6603  63.9485 15.14038159 56987
IT-SPINS
1 49017U 21013G   22188.74398752  .00006113  00000-0  24078-3 0  9999
2 49017  51.5958 302.5605 0008532 148.3296 211.8197 15.26902806 56883
LEDSAT
1 49069U 21073D   22188.74385049  .00002847  00000-0  18376-3 0  9991
2 49069  97.5236 261.2324 0026077 222.2623 137.6597 15.08799033 48895
CUTE
1 49263U 21088D   22188.69855041  .00001527  00000-0  11685-3 0  9991
2 49263  97.5877 256.2166 0019797   1.2665 358.8607 15.03227276 42468
Binar-1
1 49272U 98067SR  22188.51380721  .00063750  00000-0  45265-3 0  9998
2 49272  51.6326 218.8536 0007477  16.7470 343.3774 15.73258853 42826
Maya-3
1 49273U 98067SS  22188.56653716  .00196855  00000-0  70017-3 0  9997
2 49273  51.6270 212.3784 0010526  20.1370 340.0048 15.87770991 42911
Maya-4
1 49274U 98067ST  22188.35241530  .00164634  00000-0  63104-3 0  9991
2 49274  51.6301 213.9637 0010089  16.8853 343.2485 15.86344674 42872
CUAVA-1
1 49275U 98067SU  22188.70382212  .00115694  00000-0  61344-3 0  9990
2 49275  51.6309 214.6069 0009613  17.8508  87.9418 15.79617152 42848
TeikyoSat 4
1 49396U 21102B   22188.16191775  .00000671  00000-0  57573-4 0  9990
2 49396  97.5241 245.6020 0013929 184.9826 175.1262 15.00647199 36007
Z-Sat
1 49399U 21102E   22188.80856802  .00000641  00000-0  52331-4 0  9997
2 49399  97.5358 247.0382 0023780 154.6623 205.5774 15.02617590 36146
KOSEN 1
1 49402U 21102H   22188.72361368  .00001684  00000-0  12667-3 0  9996
2 49402  97.5271 247.0831 0022897 149.3035 210.9536 15.03669496 36150
HO-113
1 50466U 21131B   22188.83046955  .00000026  00000-0  23187-4 0  9993
2 50466  98.5803 266.0747 0005898  91.8835 268.3027 14.38505372 27849
Tevel
1 50999U 22002R   22188.45909815  .00004188  00000-0  22693-3 0  9996
2 50999  97.4796 255.2078 0010596 359.4165  57.9295 15.15100640 26456
Grizu-263a
1 51025U 22002AT  22188.72291265  .00008659  00000-0  43863-3 0  9999
2 51025  97.4969 256.1492 0011908   2.0940 358.0341 15.17162930 26515
NO-116
1 51031U 22002AZ  22188.17678198  .00004638  00000-0  24357-3 0  9999
2 51031  97.4922 255.3947 0012464   3.7251 356.4072 15.16141729 26423
IRIS-A
1 51044U 22002BN  22188.83137200  .00002861  00000-0  16297-3 0  9990
2 51044  97.4812 255.3435 0009027   5.5684 354.5646 15.13586578 26493
DELFI-PQ
1 51074U 22002CU  22188.14825500  .00005755  00000-0  28827-3 0  9991
2 51074  97.5049 256.0284 0014015  33.3676 326.8438 15.17687992 26444
SO-115
1 51080U 22002DA  22188.13108552  .00004578  00000-0  23593-3 0  9995
2 51080  97.5063 255.9284 0014010  33.5013 326.7103 15.16798849 26437
SO-114
1 51081U 22002DB  22188.13161175  .00004581  00000-0  23604-3 0  9993
2 51081  97.5054 255.9088 0014297  33.2576 326.9552 15.16802149 26437
